Location: Ferchesar
(52.6477°N, 12.4298°E)
Time: 19:48:21
(UTC+01:00)

A-11 Canister half - Pass Details

Date: 11 December 2021
Orbit: 1516 x 1684 km, 47.2° (Epoch: 23 January)

Event Time Altitude Azimuth Distance (km) Brightness Sun altitude
Exits shadow 05:36:58 - 223° (SW) 4,296 11.0 -22.0°
Reaches altitude 10° 05:38:46 10° 220° (SW) 3,756 10.7 -21.8°
Maximum altitude 05:47:39 45° 152° (SSE) 2,072 9.9 -20.4°
Drops below altitude 10° 05:56:50 10° 84° (E) 3,891 12.2 -19.1°
Sets 06:00:11 0° 78° (ENE) 4,899 12.8 -18.6°
